Regional Weather Roundup
Issued by NWS

Home | Current Version | Previous Version | Graphics & Text | Print | Product List | Glossary On
Versions: 1 2 3 4 5 6 7 8 9 10 11 12 13 14 15 16 17 18 19 20 21 22 23 24 25 26 27
000
ASUS45 KGTF 232310
RWRMT
MONTANA HOURLY WEATHER ROUNDUP
NATIONAL WEATHER SERVICE GREAT FALLS MT
500 PM MDT THU APR 23 2015

NOTE: "FAIR" INDICATES FEW OR NO CLOUDS BELOW 12000 FEET WITH NO
SIGNIFICANT WEATHER AND/OR OBSTRUCTIONS TO VISIBILITY.

MTZ001>007-043-240000-
WEST OF THE DIVIDE

CITY           SKY/WX    TMP DP  RH WIND       PRES   REMARKS
KALISPELL      CLOUDY    56  24  29 S6        29.71F
MISSOULA       SUNNY     60  22  23 VRB6      29.71F
BUTTE          MOSUNNY   61  17  18 W15G21    29.69F
DEER LODGE       N/A     57  19  23 NW9       29.72F
EUREKA           N/A     54  28  37 SW10G16     N/A
HAMILTON         N/A     63  25  23 SW10      29.69F
LIBBY            N/A     54  27  35 SW5       29.74F
$$

MTZ008-052>055-240000-
SOUTHWEST MONTANA

CITY           SKY/WX    TMP DP  RH WIND       PRES   REMARKS
BOZEMAN        LGT RAIN  59  39  47 NW8       29.66F
DILLON         SUNNY     67  18  15 W18G25    29.65F
$$

MTZ009-010-012-014-046-048-049-054-240000-
EAST SLOPES AND CENTRAL MONTANA

CITY           SKY/WX    TMP DP  RH WIND       PRES   REMARKS
CUT BANK       CLOUDY    58  21  24 W16       29.65F
GREAT FALLS    SUNNY     63  15  15 SW15G26   29.63F
MALMSTROM AFB  MOSUNNY   64  18  17 SW13G20   29.64F
HELENA         SUNNY     62  23  22 E3        29.66F
$$

MTZ011-013-016-021-045-047-050-051-240000-
NORTH CENTRAL MONTANA

CITY           SKY/WX    TMP DP  RH WIND       PRES   REMARKS
HAVRE          SUNNY     64  28  25 NW3       29.65F
LEWISTOWN      SUNNY     64  31  28 N7        29.66F
CHINOOK          N/A     63  28  27 CALM      29.66F
FORT BENTON      N/A     64  19  17 CALM      29.65F
$$

MTZ017>020-022>042-056>058-061-062-240000-
EASTERN PLAINS

CITY           SKY/WX    TMP DP  RH WIND       PRES   REMARKS
BAKER          SUNNY     63  35  35 S8        29.68F
BILLINGS       PTSUNNY   61  38  42 E6        29.67F
GLASGOW        SUNNY     59  36  42 CALM      29.70F
JORDAN           N/A     65  31  28 VRB3      29.68F
LIVINGSTON     CLOUDY    59  36  42 W12       29.67F
MILES CITY     PTSUNNY   65  36  34 NW10      29.67F
SIDNEY         CLOUDY    57  30  35 CALM      29.72F
WOLF POINT     SUNNY     62  37  39 S3        29.69F
FORSYTH          N/A     64  36  34 SW3       29.67F
PLENTYWOOD       N/A     52  30  43 SE17      29.75F
POPLAR           N/A     63  30  29 E3        29.69F
$$

REGIONAL REPORTS...DAKOTAS

CITY           SKY/WX    TMP DP  RH WIND       PRES   REMARKS
WILLISTON      CLOUDY    44  33  65 E17       29.78F
MINOT          LGT RAIN  39  35  86 SE13G24   29.88S WCI  31
DICKINSON      MOSUNNY   59  25  27 E18G25    29.71F
BEACH          FAIR      61  32  33 S8        29.69F
CROSBY         CLOUDY    45  28  53 SE15G23   29.80F
WATFORD CITY   CLOUDY    48  36  61 E14       29.75F
BISMARCK       PTSUNNY   58  24  27 SE16      29.80F
GRAND FORKS    CLOUDY    49  13  23 E3        29.99F
FARGO          MOSUNNY   52   2  13 CALM      29.98S
BUFFALO SD       N/A     67  36  31 S10G20    29.61F
RAPID CITY     TSTM      58  46  64 N15       29.67R
$$

REGIONAL REPORTS...WYOMING/IDAHO/WASHINGTON

CITY           SKY/WX    TMP DP  RH WIND       PRES   REMARKS
GILLETTE       PTSUNNY   64  36  35 N13       29.67F
SHERIDAN       CLOUDY    54  47  77 NW17      29.72R
BUFFALO WY     LGT RAIN  58  41  53 W3        29.73S
CODY           CLOUDY    57  39  51 CALM      29.71S
YELLOWSTONE LA   N/A     47  27  45 VRB6      29.84F
IDAHO FALLS    MOSUNNY   65  10  11 SW20G26   29.74F
SALMON         MOSUNNY   64  27  24 NW8       29.63F
BOISE          SUNNY     66  22  18 N8        29.74F
SPOKANE        CLOUDY    53  26  35 S12       29.77F
$$

REGIONAL REPORTS...ALBERTA

CITY           SKY/WX    TMP DP  RH WIND       PRES   REMARKS
EDMONTON       LGT RAIN  43  34  70 W9        29.67S
CALGARY        CLOUDY    55  19  24 S10       29.60F
LETHBRIDGE     PTSUNNY   55  25  30 SW24G30   29.64F
MEDICINE HAT   CLOUDY    63  23  22 SW10      29.62F
$$

REGIONAL REPORTS...SASKATCHEWAN

CITY           SKY/WX    TMP DP  RH WIND       PRES   REMARKS
SWIFT CURRENT  MOSUNNY   57  23  26 N3        29.67F
REGINA         PTSUNNY   45  30  57 S15G22    29.80F
SASKATOON      MOSUNNY   52  37  58 S8        29.72F
$$



USA.gov is the U.S. government's official web portal to all federal, state and local government web resources and services.